Flag for Malaysia Weather past 2 weeks in Kuching, Malaysia

Now
77 °F

Partly cloudy.


Feels Like: 78 °F
Forecast: 78 / 87 °F
Wind: 3 mph from Southwest

Location: Kuching Airport

Current Time: Aug 21, 2014 at 8:33:30 PM

Latest Report: Aug 21, 2014 at 8:00 PM


Visibility: N/A

Pressure: 29.83 "Hg

Humidity: 89%

Dew point: 73 °F

Location of KuchingLocation

Historic Weather in Kuching — Graph

°F

Kuching temperature yesterday

Maximum temperature yesterday: 90 °F (at 2:30 PM)
Minimum temperature yesterday: 73 °F (at 7:00 AM)
Average temperature yesterday: 81 °F

Past Weeks' High & Low Weather Summary

 TemperatureHumidityPressure
High91 °F (Aug 7, 1:00 PM)100% (Aug 7, 4:00 AM)29.95 "Hg (Aug 7, 4:00 AM)
Low73 °F (Aug 8, 4:00 AM)56% (Aug 13, 3:00 PM)29.71 "Hg (Aug 7, 4:30 PM)
Average80 °F85%29.85 "Hg
* Reported Aug 6 7:00 PM — Aug 21 7:30 PM, Kuching, Weather by CustomWeather, © 2014

Note: Actual official high and low records may vary slightly from our data, if they occured in-between our weather recording intervals... More about our weather records

Advertising

Kuching weather history for previous 24 hours

 ConditionsComfort  
Time TempWeatherWind HumidityBarometerVisibility
7:30 PM
Aug 21
77 °FLight rain. Partly cloudy.5 mph89%29.83 "Hg5 mi
7:00 PM77 °FLight rain. Partly cloudy.5 mph94%29.80 "Hg5 mi
6:30 PM75 °FLight rain. Broken clouds.3 mph94%29.80 "Hg5 mi
6:00 PM77 °FThunderstorms. Broken clouds.6 mph89%29.80 "Hg5 mi
5:30 PM77 °FThunderstorms. Broken clouds.8 mph89%29.77 "HgN/A
5:00 PM77 °FThunderstorms. Broken clouds.8 mph83%29.77 "Hg4 mi
4:30 PM79 °FStrong thunderstorms. Broken clouds.12 mph84%29.77 "Hg1 mi
4:00 PM84 °FThunderstorms. Broken clouds.12 mph70%29.74 "Hg4 mi
3:30 PM90 °FBroken clouds.5 mph59%29.74 "HgN/A
3:00 PM90 °FBroken clouds.6 mph59%29.74 "HgN/A
2:30 PM91 °FBroken clouds.5 mph56%29.77 "HgN/A
2:00 PM91 °FBroken clouds.6 mph59%29.77 "HgN/A
1:30 PM91 °FBroken clouds.8 mph56%29.77 "HgN/A
1:00 PM91 °FBroken clouds.3 mph59%29.80 "HgN/A
12:30 PM90 °FBroken clouds.6 mph59%29.83 "HgN/A
12:00 PM90 °FBroken clouds.3 mph63%29.83 "HgN/A
11:30 AM88 °FBroken clouds.5 mph66%29.86 "HgN/A
11:00 AM86 °FBroken clouds.5 mph70%29.86 "HgN/A
10:30 AM86 °FPartly sunny.3 mph70%29.86 "HgN/A
10:00 AM84 °FPartly sunny.5 mph74%29.89 "HgN/A
9:30 AM82 °FBroken clouds.3 mph79%29.89 "HgN/A
9:00 AM81 °FBroken clouds.3 mph84%29.89 "HgN/A
8:30 AM81 °FBroken clouds.1 mph84%29.86 "HgN/A
7:30 AM77 °FPartly sunny.2 mph94%29.86 "HgN/A
7:00 AM75 °FBroken clouds.1 mph94%29.83 "HgN/A
6:30 AM75 °FPartly cloudy.1 mph94%29.83 "HgN/A
6:00 AM75 °FPartly cloudy.1 mph94%29.83 "HgN/A
5:30 AM77 °FPartly cloudy.2 mph89%29.83 "HgN/A
5:00 AM77 °FPartly cloudy.2 mph94%29.83 "HgN/A
4:30 AM75 °FPartly cloudy.2 mph100%29.83 "HgN/A
4:00 AM75 °FPartly cloudy.2 mph100%29.83 "HgN/A
3:30 AM77 °FPartly cloudy.2 mph89%29.83 "HgN/A
3:00 AM77 °FPartly cloudy.1 mph94%29.83 "HgN/A
2:30 AM77 °FPartly cloudy.3 mph94%29.83 "HgN/A
2:00 AM77 °FPartly cloudy.2 mph94%29.83 "HgN/A
1:30 AM77 °FPartly cloudy.1 mph94%29.83 "HgN/A
1:00 AM77 °FPassing clouds.2 mph94%29.83 "HgN/A
12:30 AM77 °FPassing clouds.No wind94%29.83 "HgN/A
12:00 AM77 °FPassing clouds.2 mph94%29.86 "HgN/A
11:30 PM
Aug 20
77 °FPassing clouds.2 mph94%29.86 "HgN/A
11:00 PM79 °FPassing clouds.2 mph89%29.86 "HgN/A
10:30 PM79 °FPassing clouds.2 mph89%29.86 "HgN/A
10:00 PM79 °FPassing clouds.3 mph89%29.86 "HgN/A
9:30 PM79 °FPassing clouds.5 mph89%29.86 "HgN/A
9:00 PM81 °FPassing clouds.5 mph84%29.86 "HgN/A
8:30 PM81 °FPassing clouds.2 mph84%29.83 "HgN/A
8:00 PM82 °FPassing clouds.5 mph79%29.83 "HgN/A
Weather by CustomWeather, © 2014

See weather overviewHow to use our weather pages